"Pseudo-MPEC" for P10U7WD

Created 2019 Nov 12 5:07:13 UT using Find_Orb

Click here for an explanation of pseudo-MPECs

 
 Astrometry: 
     P10U7WD  C2019 11 043M1p59/GGAAstrometry?Ry-Y=T?,/Fu:ecV:vWredacted;%)kSF51
     P10U7WD  C2019 11 04:;B-JC/Eb;xJt;$9!h9P\X:8LjIRsn_gc[O4$83@clickSfjM'I@F51
     P10U7WD  C2019 11 04]k33hereMl'?LhpE7/gjphn.foriaBYhexplanation#\b`MuNg/F51

Station data:
(F51) Pan-STARRS 1, Haleakala  (N20.707235 W156.255910)  US/Hawaii.
   Observers N. Primak, A. Schultz, S. Watters, J. Thiel, T. Goggia. Measurer
   PS1 Science Consortium. 1.8-m Ritchey-Chrétien + CCD.

Orbital elements:  P10U7WD
   Perigee 2019 Nov 1.775016 +/- 35.7 TT = 18:36:01 (JD 2458789.275016)
Epoch 2019 Nov  4.0 TT = JDT 2458791.5                        AutoNEOCP
q209099.317 +/- 2.63e+7             (J2000 equator)
H   30.6  G 0.15                    Peri.   79.61791 +/- 55
                                    Node   229.46410 +/- 28
e  11.0644922 +/- 0.249             Incl.   22.71582 +/- 5.0
From 3 observations 2019 Nov. 4 (52.0 min); mean residual 0".05
Residuals in arcseconds: 
191104 F51  .03-  .06+    191104 F51  .04+  .10-    191104 F51  .01-  .03+    

Ephemerides (geocentric):
Date (UTC) HH   RA              Dec         delta   r     elong  mag " sig PA
---- -- -- --  -------------   -----------  ------ ------ -----  --- ---- ---
2019 11 12 05  02 46 59.140   +03 27 04.61  .02701 1.0160 165.1 23.6  47d   8
2019 11 12 06  02 47 02.127   +03 26 53.08  .02712 1.0161 165.1 23.6  47d   8
2019 11 12 07  02 47 05.092   +03 26 41.72  .02723 1.0162 165.0 23.6  47d   8
2019 11 12 08  02 47 08.035   +03 26 30.52  .02734 1.0163 165.0 23.6  47d   8
2019 11 12 09  02 47 10.957   +03 26 19.47  .02744 1.0164 165.0 23.6  47d   8
2019 11 12 10  02 47 13.857   +03 26 08.58  .02755 1.0165 165.0 23.6  47d   8
2019 11 12 11  02 47 16.736   +03 25 57.84  .02766 1.0166 164.9 23.6  47d   8
2019 11 12 12  02 47 19.594   +03 25 47.26  .02777 1.0167 164.9 23.7  47d   8
2019 11 12 13  02 47 22.431   +03 25 36.83  .02788 1.0168 164.9 23.7  47d   8
2019 11 12 14  02 47 25.248   +03 25 26.55  .02799 1.0169 164.9 23.7  47d   8
2019 11 12 15  02 47 28.045   +03 25 16.42  .02810 1.0169 164.8 23.7  47d   8
2019 11 12 16  02 47 30.821   +03 25 06.43  .02821 1.0170 164.8 23.7  47d   8
2019 11 12 17  02 47 33.578   +03 24 56.59  .02831 1.0171 164.8 23.7  47d   8
2019 11 12 18  02 47 36.316   +03 24 46.90  .02842 1.0172 164.8 23.7  48d   8
2019 11 12 19  02 47 39.034   +03 24 37.35  .02853 1.0173 164.7 23.7  48d   8
2019 11 12 20  02 47 41.733   +03 24 27.94  .02864 1.0174 164.7 23.7  48d   8
2019 11 12 21  02 47 44.413   +03 24 18.67  .02875 1.0175 164.7 23.7  48d   8
2019 11 12 22  02 47 47.075   +03 24 09.55  .02886 1.0176 164.7 23.7  48d   8
2019 11 12 23  02 47 49.718   +03 24 00.55  .02897 1.0177 164.7 23.8  48d   8
2019 11 13 00  02 47 52.343   +03 23 51.70  .02908 1.0178 164.6 23.8  48d   8
2019 11 13 01  02 47 54.950   +03 23 42.98  .02919 1.0179 164.6 23.8  48d   8
2019 11 13 02  02 47 57.539   +03 23 34.40  .02929 1.0180 164.6 23.8  48d   8
2019 11 13 03  02 48 00.111   +03 23 25.95  .02940 1.0181 164.6 23.8  48d   8
2019 11 13 04  02 48 02.665   +03 23 17.63  .02951 1.0182 164.5 23.8  48d   8
2019 11 13 05  02 48 05.202   +03 23 09.44  .02962 1.0182 164.5 23.8  48d   8
2019 11 13 06  02 48 07.722   +03 23 01.38  .02973 1.0183 164.5 23.8  48d   8
2019 11 13 07  02 48 10.225   +03 22 53.45  .02984 1.0184 164.5 23.8  48d   8
2019 11 13 08  02 48 12.711   +03 22 45.65  .02995 1.0185 164.4 23.8  48d   8
2019 11 13 09  02 48 15.181   +03 22 37.97  .03006 1.0186 164.4 23.8  48d   8
2019 11 13 10  02 48 17.635   +03 22 30.42  .03017 1.0187 164.4 23.9  48d   8
2019 11 13 11  02 48 20.072   +03 22 23.00  .03028 1.0188 164.4 23.9  49d   8
2019 11 13 12  02 48 22.494   +03 22 15.69  .03039 1.0189 164.3 23.9  49d   8
2019 11 13 13  02 48 24.900   +03 22 08.51  .03049 1.0190 164.3 23.9  49d   8
2019 11 13 14  02 48 27.290   +03 22 01.45  .03060 1.0191 164.3 23.9  49d   8
2019 11 13 15  02 48 29.665   +03 21 54.50  .03071 1.0192 164.3 23.9  49d   8
2019 11 13 16  02 48 32.025   +03 21 47.68  .03082 1.0193 164.2 23.9  49d   8
2019 11 13 17  02 48 34.369   +03 21 40.98  .03093 1.0194 164.2 23.9  49d   8
2019 11 13 18  02 48 36.699   +03 21 34.39  .03104 1.0194 164.2 23.9  49d   8
2019 11 13 19  02 48 39.014   +03 21 27.92  .03115 1.0195 164.2 23.9  49d   8
2019 11 13 20  02 48 41.314   +03 21 21.56  .03126 1.0196 164.1 23.9  49d   8
2019 11 13 21  02 48 43.600   +03 21 15.32  .03137 1.0197 164.1 24.0  49d   8
2019 11 13 22  02 48 45.872   +03 21 09.19  .03148 1.0198 164.1 24.0  49d   8
2019 11 13 23  02 48 48.129   +03 21 03.17  .03159 1.0199 164.1 24.0  49d   8
2019 11 14 00  02 48 50.372   +03 20 57.26  .03170 1.0200 164.1 24.0  49d   8
2019 11 14 01  02 48 52.602   +03 20 51.47  .03181 1.0201 164.0 24.0  49d   8
2019 11 14 02  02 48 54.818   +03 20 45.78  .03192 1.0202 164.0 24.0  49d   8
2019 11 14 03  02 48 57.020   +03 20 40.21  .03203 1.0203 164.0 24.0  49d   8
2019 11 14 04  02 48 59.209   +03 20 34.74  .03214 1.0204 164.0 24.0  49d   8